ONEWEB-0042 (45441 NORAD) Tracking and Keplerian Element Data

This shows tracking and keplerian element data for the satellite.

Feedback or suggestion? Click here.




ElementValue
Catalog45441
NameONEWEB-0042
Epoch Orbit88
Epoch Day87.56884019
Epoch Year2020
RAAN136.8389
Inclination87.4002
Eccentricity0.0021737
Argument of Perigee280.1242
Mean Anonmoly79.7559
Mean Motion15.36364589
Decay Rate2.069E-05
L11 45441U 20020T 20087.56884019 .00002069 00000-0 56774-4 0 9990
L22 45441 87.4002 136.8389 0021737 280.1242 79.7559 15.36364589 886

Live tracking and technical data element details for ONEWEB-0042 (NORAD 45441). ONEWEB-0042 can be tracked NOW for your location showing map with azimuth and elevation plus other details from your city location.

Track the satellite on the map from your city or location and see movement details for azimuth, elevation, latitude, longitude, range, height, and movement on the map or in text.







IsCatalogInMostPopularTable: catalog: 45441, numindb: -1

Insert: records affected: 1


GetName: 45441 ONEWEB-0042

Hit Count: inserted at: Tue, 31 Mar 2020 12:52:48 GMT